Theta_e
330 330 330 329 329 328 328 327 327 328 328 327 327 327 327 327 327 327 327 327 326 326 326 326 326 326 326 325 325 325 325 325 325 326 326 326 326 326 326 325 325 325 325 325 325 325 326 327 327 327 327 327 327 327 327 328 328 328 328 328 328 328 328 328 328 328 328 328 328 328 328 328 330 330 330 329 328 327 327 326 326 325 324 324 325
331 330 330 330 330 329 328 328 327 327 327 327 327 327 327 327 327 327 327 327 327 326 326 326 326 325 325 325 325 325 325 325 325 326 326 326 326 326 326 325 324 323 323 324 324 325 325 326 326 327 328 328 328 328 328 328 328 328 328 328 328 328 328 328 327 327 327 327 328 328 328 328 328 329 330 330 329 329 329 328 327 326 325 325 325
331 331 331 330 330 330 329 328 328 327 327 327 327 327 327 328 327 327 327 327 327 327 326 326 325 325 325 325 325 325 325 325 326 326 326 326 326 326 326 325 325 323 322 322 323 324 324 325 325 326 327 328 329 329 328 328 328 328 328 328 328 328 328 328 327 327 327 327 327 327 328 327 327 327 328 329 329 329 329 329 329 329 327 326 325
331 331 331 330 330 329 329 329 328 327 327 327 327 327 327 327 327 327 327 327 327 327 327 326 325 325 325 325 325 325 325 325 326 326 326 326 326 326 326 325 324 323 321 320 321 322 322 323 324 324 325 326 328 329 329 329 329 329 329 329 328 328 328 328 328 328 327 327 327 327 327 327 327 326 326 327 327 328 329 329 330 329 329 328 327
332 331 331 331 330 330 329 329 329 328 327 327 326 327 327 327 327 327 327 327 327 327 327 326 326 325 325 325 325 325 325 326 326 326 326 326 326 326 326 325 324 323 322 321 320 320 321 321 322 323 323 324 326 328 329 329 329 329 329 329 329 329 329 329 328 328 328 328 328 327 327 327 327 327 326 326 326 327 328 329 329 330 330 329 328
332 332 331 331 331 330 330 330 329 329 328 327 327 327 326 326 326 326 326 326 326 326 326 327 326 326 325 325 325 325 325 326 326 326 326 326 326 326 326 325 325 325 324 324 323 322 321 321 321 322 322 323 324 326 328 328 328 329 329 329 329 329 329 329 329 329 329 328 328 328 328 327 327 328 328 327 327 327 327 328 329 330 330 330 329
332 332 331 331 332 331 331 331 330 329 328 328 327 327 327 326 326 327 327 326 326 326 326 326 327 326 326 326 326 326 326 326 326 326 326 326 326 326 326 326 326 325 325 325 324 324 323 322 322 322 322 323 323 324 326 327 327 328 328 328 329 329 329 329 330 329 329 328 328 329 329 329 328 328 328 328 328 328 328 329 329 329 330 330 329
332 332 332 332 331 331 331 331 331 330 329 328 328 327 327 327 327 327 327 327 327 327 327 327 327 326 326 326 326 326 326 326 327 327 327 326 326 326 326 326 326 325 325 325 325 325 324 323 323 323 322 322 322 323 324 325 326 326 327 327 327 328 329 329 329 329 329 329 328 329 329 329 329 329 329 329 329 329 329 329 329 329 330 330 329
332 332 332 332 331 331 331 331 330 330 329 329 329 328 327 327 327 327 327 327 327 328 328 328 327 327 327 327 326 327 327 327 327 327 327 327 326 326 326 326 326 325 325 325 325 324 324 323 322 322 322 322 322 322 322 323 323 324 326 326 326 327 328 328 329 328 328 329 329 329 329 329 329 329 329 328 329 329 329 329 329 329 329 329 330
332 332 332 331 331 331 331 331 330 330 330 330 329 328 328 328 328 328 327 327 327 327 328 328 328 327 327 327 327 327 327 327 327 327 327 326 326 325 326 326 326 325 325 325 324 324 323 322 322 322 322 321 322 322 322 322 322 323 324 325 325 326 327 327 327 328 328 328 329 329 329 329 329 329 328 328 328 328 328 329 329 329 329 329 329
333 333 332 332 331 331 331 331 331 330 330 330 330 329 328 328 328 328 327 327 327 327 327 327 327 327 327 327 327 327 327 327 327 327 327 326 326 326 326 326 326 325 325 324 323 323 322 322 322 321 321 321 321 321 321 321 321 321 322 323 323 324 325 326 326 327 327 327 328 328 328 328 328 328 328 328 327 327 328 329 329 329 329 328 328
333 333 332 332 332 331 331 331 330 330 330 330 329 329 329 328 328 328 327 327 327 326 326 326 326 326 326 326 326 326 327 327 327 327 327 327 327 327 326 326 326 325 324 323 322 322 321 321 321 321 321 321 321 321 321 321 321 321 321 321 322 322 323 324 325 326 326 326 327 327 327 327 327 328 328 328 328 328 328 328 328 328 328 328 328
333 333 332 332 332 332 331 331 331 330 330 330 330 329 329 329 328 328 328 327 327 327 326 326 326 325 326 327 327 328 328 328 328 328 328 328 327 327 326 326 325 324 323 322 322 321 321 321 321 322 321 321 321 321 321 322 322 322 322 322 321 322 322 323 324 325 326 326 326 326 326 326 326 327 327 328 328 328 328 328 328 328 328 328 328
333 333 332 332 332 332 331 331 331 330 330 330 330 330 329 329 329 328 328 327 327 327 327 326 325 326 327 327 328 329 329 329 329 329 328 328 327 326 325 325 324 324 323 322 321 321 322 322 322 322 321 321 322 322 323 323 323 323 323 323 322 321 321 322 323 324 325 325 325 325 325 325 326 327 327 328 328 328 328 328 328 328 328 328 328
333 333 333 332 332 332 331 331 331 331 330 330 330 330 329 329 329 329 328 327 327 327 327 326 326 327 327 327 328 328 329 330 330 328 327 327 326 326 325 325 324 323 322 322 323 323 324 323 323 322 322 323 324 324 323 323 323 324 324 323 323 322 322 322 322 323 324 325 325 325 326 326 326 327 327 327 327 327 328 328 327 327 328 328 327
333 333 333 332 332 332 331 331 331 331 331 330 330 330 329 329 329 328 328 328 328 327 327 326 325 326 327 328 328 327 328 330 330 329 328 326 326 326 326 324 323 323 323 324 324 324 323 323 323 323 324 324 324 324 324 324 324 324 324 324 323 323 323 322 322 322 323 324 324 324 325 326 327 327 327 327 327 327 328 328 327 327 328 328 327
332 332 333 332 332 332 331 331 331 331 331 330 330 330 330 329 329 329 328 327 328 328 328 327 325 326 327 328 329 329 330 331 330 330 329 327 326 325 325 325 324 324 324 324 324 323 323 324 324 324 324 324 324 324 324 324 324 323 324 323 323 323 323 323 322 322 322 323 324 325 325 325 326 326 326 327 327 328 328 328 328 328 328 328 327
331 331 332 332 332 332 331 331 331 331 331 330 330 330 330 329 329 329 328 328 328 328 328 328 326 325 326 327 328 329 330 329 328 329 329 328 327 327 327 326 325 325 324 324 324 324 324 324 324 324 324 324 324 324 324 324 324 323 323 323 323 323 323 322 322 322 322 323 323 324 325 325 325 326 326 327 327 327 328 328 327 327 327 326 326
330 330 331 331 331 331 331 331 331 330 331 330 330 330 330 330 330 329 329 328 328 327 328 328 327 325 325 326 326 327 327 327 327 327 328 328 328 328 328 326 325 326 325 325 325 325 326 325 325 324 324 324 324 324 324 324 323 323 323 323 323 323 323 322 322 322 322 322 323 323 324 324 325 325 326 327 327 327 327 327 327 326 326 326 326
331 331 331 331 331 331 331 331 331 331 330 330 330 330 330 330 330 329 329 328 328 328 328 328 328 327 325 325 325 326 326 326 326 326 328 328 327 326 326 326 326 326 326 326 327 326 327 326 325 325 324 324 324 324 324 323 324 324 323 324 323 323 323 322 322 321 321 322 323 323 323 323 324 324 325 326 327 327 327 327 327 326 326 325 325
331 331 330 331 331 330 331 331 331 331 330 330 330 330 330 330 330 330 329 329 328 328 328 328 328 328 327 326 325 325 325 325 325 326 326 328 328 326 326 326 326 326 326 326 326 326 326 326 325 325 325 324 324 324 324 324 324 324 324 324 323 323 323 322 322 322 321 321 322 322 322 322 323 323 324 325 327 327 327 327 327 326 325 325 325
331 331 330 331 331 331 330 331 331 331 330 330 330 330 330 330 330 330 329 329 329 328 328 328 328 328 328 327 326 325 325 325 325 325 325 326 327 326 325 325 325 326 326 325 326 326 325 325 325 325 325 325 324 324 324 324 324 323 324 324 324 323 323 323 322 321 321 320 320 320 321 321 322 322 323 324 325 327 327 327 327 326 325 325 325
330 330 330 330 330 331 330 330 330 330 330 330 330 330 330 330 330 330 329 329 329 328 328 328 328 328 328 328 328 326 326 326 325 325 325 325 326 326 325 325 325 326 326 325 325 325 325 325 325 325 325 325 325 324 324 324 323 323 323 324 324 323 323 323 322 321 321 320 319 319 320 320 321 322 322 323 324 326 327 327 327 326 325 325 325
329 329 329 329 329 329 330 330 330 330 330 329 330 330 329 329 329 329 329 329 329 328 328 328 328 328 328 327 328 327 327 327 326 326 326 326 326 326 325 326 326 326 325 325 325 325 325 325 325 325 325 325 325 325 324 324 323 323 324 324 324 323 323 323 322 322 322 321 320 320 320 320 320 321 322 322 323 325 326 327 327 326 325 325 325
327 328 328 328 328 328 328 329 329 329 329 329 329 329 329 329 329 329 329 329 328 328 328 328 328 328 328 328 327 327 327 327 327 327 327 326 326 326 326 326 326 325 325 325 325 324 324 325 325 325 325 325 325 325 324 324 323 323 324 324 324 324 323 323 323 322 322 322 321 321 321 320 320 320 321 322 323 324 325 326 326 326 325 325 325
322 324 325 326 326 326 327 327 328 328 328 329 328 328 329 328 329 329 328 328 328 328 328 328 328 327 327 327 327 327 327 327 327 327 327 327 327 327 327 327 327 326 326 325 325 325 324 324 325 325 325 325 324 324 324 323 323 323 323 323 323 323 323 323 323 322 322 322 322 322 322 321 320 319 320 321 323 324 325 325 325 325 324 324 324
315 317 319 321 322 324 325 326 327 327 327 327 327 327 327 327 328 328 328 328 327 328 328 327 327 327 327 327 327 327 327 327 327 327 327 327 327 327 327 327 327 326 325 325 325 325 324 324 325 325 325 325 324 324 323 323 323 323 323 323 324 323 323 323 323 323 322 322 322 322 322 322 320 319 319 320 321 323 324 325 325 325 324 323 323
308 309 311 313 316 319 321 322 323 325 325 326 326 326 326 326 327 326 327 327 327 327 327 327 327 327 327 327 327 327 327 327 327 327 327 327 327 327 326 327 327 327 326 326 324 324 324 324 324 324 324 325 325 324 323 323 323 323 323 323 323 323 323 323 323 323 322 322 322 322 322 322 321 320 319 319 320 321 323 324 325 325 324 323 323
304 306 307 308 310 312 314 316 318 319 321 322 323 324 325 325 325 325 325 326 326 326 326 326 326 326 326 326 326 326 327 327 327 327 327 327 326 326 326 326 326 327 327 327 325 323 323 323 323 324 325 325 324 323 323 323 323 323 323 323 323 323 323 323 323 323 322 322 322 322 322 322 322 321 320 319 318 319 320 322 324 324 324 324 323
302 303 305 306 307 308 309 311 313 314 315 317 318 320 321 322 323 323 324 324 324 325 325 325 325 325 325 324 325 325 325 325 326 326 326 326 326 326 326 326 326 326 327 327 325 324 323 324 324 324 324 323 323 323 324 323 323 323 323 323 323 323 323 323 323 323 323 322 322 322 322 322 321 321 321 320 319 318 319 320 322 323 324 324 324
300 301 302 303 305 306 306 307 308 310 311 312 314 315 317 319 321 321 321 322 322 323 323 323 323 323 323 323 324 324 324 324 324 324 325 325 325 325 325 325 325 324 325 325 325 324 323 324 324 323 323 322 323 323 323 323 323 323 323 323 323 323 323 323 323 323 323 322 322 322 322 322 322 321 321 321 320 318 318 318 320 321 323 324 324
299 300 300 301 302 303 304 305 306 307 308 309 311 312 314 316 318 319 320 321 321 321 321 322 322 322 322 323 323 323 323 323 323 323 324 324 324 324 324 324 324 324 324 324 324 323 323 323 323 323 322 322 323 323 323 324 323 322 322 323 323 322 322 322 323 323 323 323 322 321 321 322 322 321 321 321 321 319 318 318 319 319 321 323 324
298 298 299 299 300 300 301 303 304 304 306 307 308 309 311 313 314 315 316 317 318 319 320 320 321 321 321 321 321 322 322 322 322 322 322 323 323 323 323 324 324 324 324 323 323 322 322 322 322 322 322 322 323 323 323 323 323 323 323 323 322 322 322 322 322 323 323 323 322 322 322 322 322 322 322 321 321 321 319 318 318 319 319 320 322
296 297 298 298 298 299 300 300 301 302 303 304 305 307 308 309 310 310 311 311 313 314 316 317 318 319 319 319 319 320 320 320 320 320 321 321 321 321 322 322 322 323 322 323 323 322 322 322 322 322 322 322 322 322 322 323 323 323 323 322 322 322 322 322 322 322 322 322 322 322 322 322 322 322 322 322 321 321 321 319 318 318 318 319 320
295 295 296 297 297 298 298 299 299 300 301 301 302 303 305 306 308 309 309 310 310 311 313 315 316 317 317 318 318 318 319 319 319 319 319 320 320 320 320 321 321 321 321 321 322 322 322 321 321 321 321 321 321 321 322 322 322 322 321 321 322 322 322 322 322 322 321 322 322 322 323 323 323 323 322 322 322 321 321 320 318 317 318 319 319
292 293 294 295 295 296 297 297 298 298 299 300 300 301 302 303 305 306 307 308 309 310 312 314 315 315 316 316 316 317 317 317 317 318 318 318 319 319 319 320 320 320 320 320 321 321 321 321 320 320 320 320 320 320 321 320 320 320 320 321 322 322 322 322 322 321 321 321 322 322 323 323 323 323 322 322 322 322 321 321 319 318 318 318 319
290 290 291 292 293 294 294 295 296 297 297 298 299 299 300 300 302 303 304 306 307 308 310 311 311 312 313 313 314 314 315 315 315 316 316 316 317 317 317 318 318 318 318 319 319 319 320 320 319 319 319 319 319 319 319 319 320 320 320 321 321 320 321 321 321 321 321 320 321 321 321 321 321 322 322 322 322 322 321 321 320 319 318 318 319
288 289 290 291 291 292 292 293 294 294 295 297 297 298 299 299 299 300 301 303 304 306 307 307 308 309 309 310 311 312 313 313 313 313 314 314 315 315 315 315 316 316 316 316 316 317 317 318 318 318 318 318 318 318 318 319 319 319 319 320 319 319 320 320 320 320 320 319 320 320 320 319 320 321 321 322 322 322 322 321 321 320 319 318 318
288 288 289 289 290 290 291 291 292 292 293 294 296 297 297 298 298 298 299 299 300 302 304 305 306 306 306 307 308 309 310 311 311 312 312 313 313 313 313 314 314 314 314 314 315 315 315 316 316 316 316 316 316 317 317 318 318 318 318 319 318 318 319 319 319 319 319 319 319 319 318 318 320 320 320 320 321 321 321 321 321 321 320 319 318
287 288 288 288 288 289 290 290 291 291 292 293 294 295 295 295 296 297 297 297 298 299 300 301 302 302 303 304 305 306 307 307 308 308 309 309 310 311 311 312 312 312 313 313 313 314 314 314 315 315 315 315 315 315 316 317 318 318 317 317 317 317 317 318 318 318 319 319 319 318 318 318 319 319 319 319 320 320 321 321 321 321 320 319 318
287 287 288 288 288 288 289 289 289 289 290 291 292 292 292 292 293 294 295 296 296 296 297 298 298 299 299 300 301 302 303 303 303 303 304 304 305 306 306 307 308 309 310 310 311 312 312 313 313 314 313 314 314 315 315 316 316 316 316 316 317 317 317 317 317 318 318 318 318 318 318 318 318 318 318 319 319 319 320 321 321 321 320 320 319
286 287 287 288 288 288 288 288 288 288 289 289 290 289 289 290 291 292 293 294 294 295 296 296 296 297 297 298 298 299 300 300 301 301 301 301 301 302 302 303 304 305 306 307 308 309 310 310 311 312 312 312 313 313 313 313 314 314 315 316 316 316 316 316 316 316 317 317 317 317 317 317 317 317 317 317 318 318 319 320 320 320 320 320 319
285 286 287 287 287 287 287 287 288 287 287 288 288 287 288 288 289 290 291 292 293 294 295 295 296 296 296 296 296 297 297 298 299 300 300 300 300 300 300 300 301 302 303 304 305 306 307 308 309 309 310 310 311 311 311 312 312 313 313 314 314 314 315 315 314 314 314 315 316 316 316 316 316 316 316 317 317 317 317 318 318 319 319 320 319
285 286 286 287 287 287 287 287 287 287 287 286 286 287 287 287 287 288 289 291 292 293 294 294 295 295 295 295 295 295 296 297 297 297 298 298 298 299 299 299 299 300 300 301 302 303 304 305 306 307 307 308 309 309 310 311 311 311 311 311 311 312 313 313 313 313 312 313 313 314 314 314 314 315 315 315 315 315 316 316 317 318 318 319 319
284 285 285 286 286 286 286 286 286 286 286 286 286 286 286 286 287 287 288 289 291 291 292 293 293 293 294 294 294 295 295 295 295 295 296 296 297 297 297 298 298 298 299 299 300 300 301 301 302 303 304 305 306 307 307 307 307 307 307 308 308 309 310 311 311 311 311 311 312 312 313 313 313 313 313 313 313 314 315 315 316 316 317 317 318
284 284 285 285 285 286 286 286 286 286 285 285 285 286 286 286 286 287 288 289 289 290 290 290 291 291 292 292 293 293 294 294 294 295 295 295 295 296 297 297 298 298 298 299 299 299 300 300 300 301 301 302 303 303 304 304 304 304 304 305 305 305 306 306 306 307 308 309 310 310 310 311 311 311 311 312 312 312 313 313 313 314 315 316 317
283 283 284 284 284 285 285 285 285 285 285 285 285 285 285 286 286 287 287 288 289 289 289 289 290 290 290 291 292 292 293 293 294 294 294 294 295 295 296 296 297 297 298 298 298 298 299 299 299 300 300 300 301 301 301 301 301 301 301 301 301 301 302 302 302 303 304 306 307 309 309 309 309 309 310 310 311 311 311 311 312 313 314 315 316
282 282 283 283 284 284 285 285 285 285 285 285 285 285 285 286 286 286 287 287 288 288 289 289 289 289 290 290 291 291 291 292 292 293 293 293 293 293 294 294 295 295 296 297 297 298 298 298 298 298 299 299 299 299 299 299 298 298 299 299 299 300 300 300 301 301 302 303 305 307 308 308 308 309 309 310 310 310 310 310 310 311 312 313 314
281 281 282 282 283 284 284 285 285 285 285 285 285 285 285 285 286 286 286 287 287 287 288 288 288 289 289 289 289 289 289 290 290 291 291 291 291 291 292 292 293 293 294 295 295 296 296 297 297 297 297 298 298 298 297 297 297 297 298 298 298 298 299 299 299 300 301 302 303 305 306 307 308 308 309 310 309 309 309 309 309 309 310 310 311
280 280 281 281 282 283 284 284 285 285 285 285 285 285 285 285 285 285 286 286 286 286 287 287 288 288 288 288 288 288 288 289 289 288 288 289 289 290 291 291 291 292 292 293 293 294 295 295 295 296 296 296 296 295 295 295 296 296 296 297 297 297 298 298 298 299 300 301 301 303 304 305 306 307 308 308 308 308 308 308 308 309 308 308 309
278 279 280 280 281 282 283 283 284 285 285 285 285 284 285 285 285 285 285 285 285 285 285 286 286 287 287 287 288 288 288 288 287 287 287 288 288 289 290 290 291 291 292 292 293 293 293 293 293 293 293 293 293 294 294 294 294 295 296 296 297 297 297 297 298 298 299 300 300 301 302 303 304 305 306 306 307 307 308 308 308 308 308 308 308
Wind_Speed
18 18 18 18 18 17 17 17 18 17 16 16 16 16 16 16 16 16 17 17 18 18 18 19 19 19 19 20 20 20 19 19 19 20 19 20 21 21 22 25 25 25 24 24 24 24 23 23 22 22 22 23 23 23 24 25 25 25 26 26 27 27 27 27 28 28 29 29 30 30 30 31 31 31 31 31 31 30 29 29 28 27 28 29 30
20 20 19 19 18 18 18 18 18 17 16 16 16 16 16 16 16 16 16 16 17 17 18 18 18 19 19 20 19 19 18 19 19 19 19 20 20 21 22 24 26 25 24 24 24 24 25 24 24 23 23 23 23 24 24 25 26 26 27 27 28 28 28 28 29 29 30 30 30 30 31 31 31 31 31 31 32 32 32 31 30 29 28 27 28
24 22 21 19 18 19 19 18 18 16 15 15 15 15 15 15 15 16 16 16 16 16 16 18 18 18 18 19 19 18 18 18 19 19 20 20 20 22 22 24 26 27 25 23 24 24 25 25 25 25 24 24 24 24 25 25 26 27 27 28 29 29 29 29 30 30 30 30 30 31 31 31 31 31 32 32 32 32 32 32 32 31 30 29 28
26 23 23 22 20 19 17 18 18 15 13 14 14 13 13 14 14 14 14 15 15 15 15 16 18 18 17 18 18 18 18 18 19 19 20 20 21 22 23 24 25 27 27 26 25 24 24 24 25 26 26 26 25 25 25 25 26 27 27 27 29 29 29 29 30 30 30 31 31 32 32 31 31 31 31 32 33 33 32 32 33 33 32 31 30
26 24 23 23 23 21 19 19 17 15 15 14 14 13 12 13 13 13 13 14 15 15 14 15 16 17 17 17 17 18 17 17 18 18 19 20 21 21 22 24 25 27 28 29 28 26 25 25 26 26 27 27 26 25 25 26 26 27 27 28 28 28 29 30 30 30 31 31 32 32 32 32 32 31 31 31 32 32 33 33 33 33 32 32 31
25 24 23 22 23 23 22 21 19 18 18 16 15 15 14 16 15 14 14 15 16 15 14 15 15 16 16 16 15 16 16 17 17 16 17 19 21 22 23 24 26 29 30 31 32 30 28 27 26 26 26 27 27 26 25 26 26 26 27 28 28 28 29 30 30 30 31 32 32 33 33 32 32 32 32 32 32 32 32 32 32 32 32 32 32
23 23 23 22 22 22 21 22 21 19 19 18 17 18 17 18 18 15 14 15 16 15 15 15 15 16 17 16 15 16 15 16 17 17 18 20 23 24 25 27 28 30 31 32 32 31 30 28 27 26 26 26 26 26 25 25 26 26 27 27 28 28 29 29 30 30 31 32 32 33 33 33 33 33 33 33 32 32 32 32 32 32 32 32 32
23 23 24 23 22 22 20 22 22 18 18 19 19 21 21 20 19 16 15 15 15 15 15 15 16 17 16 16 16 16 17 17 18 19 20 21 24 26 28 31 31 31 31 31 32 31 31 30 28 27 26 25 25 25 25 24 25 25 26 26 26 27 28 28 29 30 31 31 32 33 33 33 33 33 33 33 33 33 32 32 32 32 32 32 32
24 25 26 25 23 22 20 21 22 19 19 19 20 23 23 21 21 21 19 18 16 17 16 16 17 17 17 17 17 18 18 19 20 20 21 22 26 29 31 32 32 31 31 31 31 30 29 28 27 25 24 23 23 23 23 23 23 24 25 25 25 26 26 27 28 28 29 30 31 32 33 33 34 34 34 34 33 33 32 32 32 32 32 32 33
22 23 24 25 24 24 20 19 20 20 20 19 20 23 25 24 23 23 21 19 18 18 17 17 17 17 18 18 18 19 20 21 22 21 22 25 28 30 31 31 31 30 30 29 28 26 25 24 23 23 22 21 20 20 20 20 21 22 23 23 24 25 25 26 27 27 27 28 30 31 32 33 34 34 34 34 33 32 32 32 32 32 32 32 33
20 20 23 23 23 23 21 19 19 20 20 21 20 22 25 25 24 23 20 19 19 18 17 17 17 18 19 20 21 22 23 23 23 23 25 28 30 31 30 29 28 28 26 25 23 22 22 21 20 20 20 19 18 17 16 17 17 18 20 21 22 23 24 25 26 26 26 27 29 30 31 32 33 33 33 33 32 32 31 32 32 32 32 32 33
20 20 21 22 21 21 20 20 20 19 20 22 22 21 21 22 23 25 23 20 19 19 19 18 18 19 21 23 23 23 25 25 25 25 26 27 27 27 26 24 23 23 21 19 20 20 20 18 16 16 17 18 18 16 14 14 14 15 16 17 18 20 22 23 24 25 25 26 27 29 30 31 31 32 32 31 31 31 31 31 31 31 31 31 32
21 20 20 21 21 20 20 19 19 19 20 22 21 20 20 20 21 23 24 22 19 18 18 16 16 16 18 20 21 21 23 25 24 24 24 23 22 21 20 19 18 18 17 18 18 17 15 14 15 16 16 16 17 18 18 18 18 18 18 18 18 19 20 21 22 23 24 24 25 26 28 29 29 30 30 30 30 30 30 30 30 30 30 30 30
21 21 20 21 21 20 20 19 19 20 21 22 23 23 22 22 21 20 20 19 19 17 14 11 11 12 12 13 14 15 16 18 20 19 18 18 17 17 17 16 16 16 15 15 15 15 15 16 16 17 16 18 20 22 24 24 25 24 22 22 21 21 21 21 22 22 23 24 25 25 27 28 28 28 28 29 30 29 29 29 29 29 29 30 30
18 20 21 22 22 21 20 19 18 19 20 22 23 23 23 22 21 19 18 17 17 16 14 13 12 11 11 9 8 7 7 9 11 13 14 14 16 16 16 16 15 14 13 13 15 16 17 16 15 16 19 23 25 26 26 26 26 25 24 23 22 21 21 22 22 23 23 24 25 25 26 27 27 27 28 29 29 29 29 29 29 29 29 30 30
17 17 19 20 20 20 19 18 18 17 19 20 20 20 20 19 19 19 18 18 17 15 14 16 15 11 8 6 4 5 6 3 3 9 12 12 13 12 12 13 12 12 14 15 16 16 17 18 19 21 24 26 26 26 26 26 26 26 25 24 23 22 22 23 23 24 24 24 24 25 26 26 27 28 28 28 29 29 29 29 28 29 29 29 28
21 18 17 18 18 18 17 17 18 17 17 18 19 19 18 18 18 18 19 19 18 16 16 17 18 16 13 8 5 5 5 4 7 8 6 7 9 9 11 13 12 13 15 16 17 19 21 23 24 24 24 25 26 26 27 26 26 26 26 26 24 23 23 24 24 25 24 24 24 24 25 26 27 28 28 28 29 28 28 29 29 28 28 28 28
26 23 19 17 16 17 17 18 18 17 16 17 18 18 18 18 17 18 19 19 18 18 18 18 18 19 20 18 14 11 9 8 8 6 6 7 10 10 11 11 11 13 15 17 20 22 22 22 23 24 25 26 27 27 27 27 27 26 27 26 25 25 24 24 24 25 25 24 24 25 25 26 27 28 28 28 29 29 28 28 30 29 28 29 29
25 25 23 20 18 18 18 19 18 17 17 18 18 18 18 18 17 18 18 17 17 18 19 18 17 17 20 22 22 21 18 13 9 8 9 8 7 8 10 10 12 15 17 18 17 17 17 16 20 22 24 25 26 27 27 27 28 27 27 26 25 24 23 23 23 24 24 24 24 25 25 26 27 28 28 28 29 29 28 29 31 31 30 30 29
21 23 25 24 23 22 21 20 19 18 18 19 20 19 19 18 18 19 19 18 18 20 19 18 17 16 16 18 20 21 21 20 18 14 10 9 9 11 15 16 17 17 16 16 16 16 17 18 20 21 22 23 23 25 28 28 28 29 28 26 24 23 22 22 22 23 23 22 22 23 25 26 27 27 28 29 30 30 29 29 30 30 30 31 30
20 21 22 22 23 25 23 20 20 19 19 20 20 20 20 20 20 20 20 19 19 20 20 19 19 18 16 16 17 18 19 20 21 19 14 13 12 11 15 17 18 19 19 19 19 19 19 20 22 23 24 23 22 24 28 28 28 28 27 25 23 22 21 21 21 22 22 22 22 22 24 26 26 27 28 29 30 30 29 28 27 28 30 31 29
18 19 20 19 20 21 20 19 21 21 21 21 21 22 21 21 21 22 22 21 20 21 21 20 20 20 19 18 16 15 14 14 16 18 15 13 13 11 14 15 15 18 20 21 22 21 21 22 23 25 25 23 22 25 27 27 27 26 24 22 21 20 20 20 20 20 20 21 22 22 23 25 26 27 27 28 30 31 30 29 28 28 30 30 28
18 18 18 18 18 18 18 18 20 21 22 21 20 21 21 21 21 21 23 23 22 22 22 21 21 22 21 22 21 18 15 13 14 16 13 10 11 10 13 17 18 19 20 21 23 23 23 24 24 26 25 22 22 23 24 25 25 24 23 20 18 17 17 18 17 17 17 18 19 19 21 23 24 26 27 28 29 30 31 30 30 30 29 29 28
16 16 17 17 17 16 16 17 18 19 20 20 20 19 19 20 20 20 21 22 22 22 22 21 21 22 21 22 24 22 22 21 18 18 17 15 13 9 11 16 17 20 24 23 23 24 23 24 25 25 25 23 21 20 22 25 25 23 21 18 17 16 15 16 16 16 17 18 18 19 20 21 22 24 26 27 28 29 31 30 30 31 30 29 29
16 16 16 16 16 16 16 17 18 18 18 18 19 19 19 19 19 20 21 20 21 21 21 22 22 22 21 21 22 23 25 25 22 22 22 20 16 10 10 14 13 17 23 24 24 24 24 24 23 24 25 24 22 21 23 26 25 22 19 18 18 17 16 16 17 18 18 19 20 21 22 22 22 23 24 26 27 28 30 30 29 30 31 31 29
19 18 18 17 17 16 16 17 18 18 18 18 18 19 20 20 20 21 22 21 20 20 20 21 23 24 24 23 23 22 23 23 24 24 23 21 18 13 11 14 14 14 18 23 23 22 23 23 21 21 23 24 24 24 25 24 23 21 19 20 20 19 19 19 18 19 20 20 22 22 23 22 21 22 22 24 26 28 29 31 30 30 31 32 31
21 20 20 20 18 18 17 16 16 16 16 17 17 18 18 19 20 20 21 20 20 20 21 21 22 23 24 25 24 23 22 22 23 24 24 23 22 19 14 12 14 12 11 17 20 21 23 23 21 19 19 23 25 24 24 22 21 21 19 21 23 22 22 22 21 21 21 21 23 23 23 23 22 21 21 22 25 28 29 31 32 31 32 33 33
27 25 24 22 19 19 18 17 16 15 14 15 15 16 17 17 18 19 20 20 20 22 22 22 23 23 23 25 25 25 24 23 24 25 26 25 23 23 20 15 14 12 9 11 12 16 22 23 21 19 18 20 23 22 22 22 22 22 22 23 25 25 24 25 25 23 22 23 24 24 24 23 23 21 21 21 23 26 29 31 32 33 33 33 34
33 32 29 26 23 21 19 18 18 17 16 15 14 14 15 16 17 18 19 19 20 21 21 22 24 23 24 25 25 27 26 24 26 26 26 27 25 25 25 22 18 13 11 11 8 10 19 22 20 22 22 21 22 22 22 24 24 24 25 26 26 27 27 26 26 26 24 24 25 26 26 25 25 23 22 21 22 23 27 30 32 33 34 34 34
36 35 33 30 27 25 22 21 19 19 19 18 16 15 14 15 16 17 18 18 18 20 19 19 21 22 23 24 24 26 26 26 27 28 27 28 27 27 27 27 25 19 13 12 10 9 16 22 21 21 23 23 24 26 26 27 28 28 28 29 29 29 30 29 29 28 27 27 27 27 27 28 27 26 24 23 23 23 24 28 32 34 34 34 34
37 36 35 34 32 29 27 25 23 22 21 20 19 17 16 15 15 16 16 16 17 18 18 18 18 19 20 21 22 23 23 24 25 25 26 26 26 26 26 27 27 26 21 15 12 11 14 19 23 22 23 24 26 28 30 32 32 31 31 32 31 30 31 32 31 30 29 29 28 28 28 29 29 27 26 25 24 24 24 26 29 32 33 32 33
38 37 36 35 34 32 31 29 27 25 24 22 20 19 17 16 15 15 15 14 14 16 16 16 17 18 19 20 21 21 20 21 21 21 22 23 23 23 24 25 26 28 27 20 13 13 15 20 26 27 25 26 26 26 29 33 33 32 33 32 30 31 33 34 34 32 31 31 30 30 31 31 31 30 28 27 26 26 25 26 27 30 32 32 32
39 37 36 35 34 33 32 30 29 28 26 24 22 20 19 18 17 17 17 16 15 15 15 15 15 16 18 19 20 20 19 20 21 21 21 21 21 21 22 23 23 24 24 21 16 15 17 21 24 26 25 25 26 25 25 29 30 30 30 29 30 31 33 34 34 34 33 33 33 33 33 33 33 32 31 30 29 27 26 27 28 29 31 33 33
38 37 35 34 33 33 32 31 30 29 27 26 24 22 21 21 21 21 21 20 19 18 17 17 16 15 16 18 19 18 18 19 21 21 21 20 20 21 21 21 23 22 21 22 20 15 16 19 21 24 24 24 26 25 23 25 27 26 27 29 31 32 32 32 34 36 36 35 35 35 35 35 34 34 34 33 32 30 28 27 29 30 31 33 35
36 34 34 34 33 32 32 31 30 29 28 27 26 24 23 22 21 22 22 21 20 20 19 18 17 15 15 16 17 16 16 17 19 19 20 20 19 20 21 21 22 23 22 22 22 18 17 19 20 22 23 23 24 25 23 24 25 25 26 28 29 30 33 33 33 35 36 36 37 37 36 36 36 36 36 36 36 34 32 29 29 31 33 33 34
34 32 31 31 31 32 32 31 30 29 29 28 28 26 24 22 21 21 21 20 20 19 18 17 16 15 15 16 16 16 15 16 18 18 18 18 19 19 20 20 20 22 22 21 23 23 21 20 20 21 24 26 26 24 23 24 26 27 28 28 27 28 29 29 30 34 36 35 37 37 36 35 36 38 38 38 38 37 36 33 30 31 33 35 34
32 30 28 27 27 30 32 32 31 30 29 28 28 27 26 24 22 22 21 20 20 19 19 19 18 17 17 18 17 15 14 16 17 17 17 17 17 18 19 20 19 20 20 19 21 23 22 21 22 23 24 26 26 24 24 24 26 26 26 27 29 30 30 31 32 33 33 33 35 35 35 36 37 37 38 39 39 39 38 37 35 33 33 34 36
31 28 26 25 25 27 31 31 31 31 30 27 27 26 26 25 23 22 21 21 21 20 20 20 19 19 19 19 19 17 15 16 17 17 17 16 17 17 18 19 19 18 19 20 19 20 22 22 24 24 23 23 24 24 23 21 23 25 24 24 27 29 29 30 33 33 32 33 35 34 34 36 37 36 37 39 40 41 41 40 39 37 35 34 36
30 28 26 26 25 25 27 28 29 30 29 27 25 23 24 25 26 25 24 23 22 20 20 20 19 19 19 20 19 18 16 16 16 16 16 16 16 16 17 18 18 18 18 19 19 19 20 21 22 23 23 22 23 24 22 20 21 25 24 21 23 25 23 24 30 33 30 28 31 33 35 36 36 36 36 38 40 41 42 43 42 41 39 37 36
28 27 25 25 26 26 25 25 25 26 27 25 21 20 22 25 25 24 25 25 23 22 21 21 20 20 20 19 19 19 18 17 18 18 17 17 16 16 17 16 16 17 18 18 18 18 19 19 20 21 22 22 21 21 21 18 16 19 19 18 21 24 22 23 28 31 27 24 27 32 37 36 34 35 37 38 41 41 41 43 44 44 43 40 38
26 25 24 23 25 26 26 25 25 24 23 22 20 20 23 25 23 22 22 23 23 24 24 25 24 23 22 21 20 20 20 21 22 22 22 22 21 22 21 18 17 18 18 18 18 17 17 17 19 20 20 19 19 19 17 16 16 16 18 18 20 22 22 22 26 27 24 24 27 30 35 35 32 34 37 39 41 41 40 42 44 45 45 43 41
24 24 24 22 23 24 25 26 25 24 22 21 21 24 24 24 24 24 23 22 21 21 22 23 24 24 23 23 23 23 23 23 23 23 24 24 24 25 26 23 21 20 20 19 18 17 16 16 17 18 14 15 20 21 18 18 18 17 18 18 18 20 20 18 23 27 23 22 26 30 35 34 31 34 38 39 40 38 37 41 44 43 44 44 43
24 24 24 23 23 24 24 25 25 25 24 23 25 26 25 24 24 24 24 23 21 19 18 19 20 21 22 22 23 23 23 23 22 22 22 22 22 23 24 24 23 21 21 20 19 18 17 16 18 18 14 16 21 22 20 19 18 16 17 18 17 18 16 10 13 20 19 16 18 26 35 34 27 29 37 39 39 39 38 41 42 42 43 43 43
24 24 24 24 25 24 24 24 25 24 24 25 26 26 25 25 24 23 23 23 22 20 18 18 18 19 19 19 19 19 20 21 20 20 20 21 21 22 22 23 23 23 24 23 22 20 18 17 18 19 19 19 21 22 20 17 16 16 17 18 17 16 16 12 12 18 22 20 17 22 32 35 26 24 33 40 41 40 39 40 40 39 40 42 43
23 24 24 25 25 24 24 25 26 26 25 25 26 26 26 26 24 24 23 23 22 21 20 19 18 18 18 18 17 17 17 18 18 17 17 18 19 19 20 21 21 22 23 24 25 24 23 21 20 22 24 22 19 22 22 18 17 19 19 20 19 18 18 18 18 23 27 26 21 19 24 35 33 23 30 43 42 35 36 39 38 38 40 42 43
24 24 25 25 25 24 24 25 26 26 26 25 26 26 27 27 26 25 24 22 20 20 20 19 18 18 17 16 17 17 16 16 15 15 15 16 16 17 17 17 18 19 19 20 22 23 24 25 25 27 29 25 22 25 26 22 19 20 21 21 21 22 22 23 26 31 32 29 26 18 17 33 39 25 27 43 42 33 36 40 39 39 40 41 43
24 24 24 25 26 26 25 25 26 27 26 26 26 27 27 27 27 26 23 21 20 20 20 19 18 18 17 16 16 17 17 17 16 15 15 16 17 17 17 17 17 17 17 18 19 20 23 24 25 27 28 26 23 23 24 23 19 19 21 23 27 29 29 27 29 36 38 35 30 19 13 28 39 28 28 42 41 34 39 40 38 39 39 39 41
25 25 25 26 27 28 27 26 27 27 27 26 26 27 27 27 27 25 23 22 21 21 20 19 18 18 17 16 15 16 17 17 17 16 16 17 18 18 18 19 19 19 19 19 19 21 23 24 24 27 28 27 26 25 26 27 25 23 22 24 29 29 23 18 20 28 33 32 29 23 18 25 35 31 29 37 37 34 39 40 38 38 39 39 40
25 26 27 28 28 28 28 28 27 28 28 27 26 26 25 25 25 24 23 22 22 22 21 20 19 18 17 16 16 16 17 17 16 16 16 17 18 18 19 20 20 20 20 18 18 21 23 24 25 28 29 30 31 31 32 32 31 29 25 24 27 24 15 9 10 17 25 28 27 26 21 22 29 31 29 32 34 34 36 39 39 39 39 40 41
26 26 27 27 27 27 28 28 28 28 28 27 25 24 24 23 23 23 22 22 22 22 21 20 19 18 18 18 17 17 18 17 16 16 16 16 17 18 18 19 20 20 18 15 15 17 18 19 21 24 26 29 30 31 32 32 31 29 26 25 26 22 14 10 10 13 21 29 33 29 19 19 27 30 27 27 29 33 37 39 40 40 39 40 42
24 25 25 25 26 27 27 27 27 27 27 26 24 23 22 22 22 22 21 21 21 21 21 21 21 20 19 18 17 17 17 17 17 17 17 16 17 18 18 19 20 21 17 13 14 16 16 17 19 20 22 24 24 25 27 27 27 25 25 26 26 24 18 15 15 12 11 20 32 28 15 16 24 26 23 18 14 21 32 35 36 38 38 39 40
Wind_Direction
255 256 256 255 254 253 254 256 256 256 257 257 256 258 259 260 261 262 263 263 265 265 266 267 265 265 266 268 269 269 269 269 271 272 272 273 275 276 276 281 285 285 284 285 286 283 278 273 270 269 267 266 265 264 264 265 265 264 264 264 263 263 263 263 264 264 264 264 264 263 262 263 264 265 264 263 263 263 263 262 261 262 262 261 262
256 259 258 258 258 258 258 256 256 255 255 256 255 257 258 259 260 262 264 265 267 268 268 268 266 266 266 267 268 269 268 268 269 271 272 273 274 275 274 280 285 286 285 284 284 284 282 278 273 269 266 265 264 264 264 264 264 264 264 264 264 264 263 264 264 264 264 264 264 263 262 262 262 262 263 263 263 262 262 262 261 262 261 260 262
255 257 257 259 261 261 259 257 256 254 254 256 255 255 257 257 258 259 262 264 266 268 268 268 268 267 265 265 267 267 266 266 267 268 270 271 271 272 273 277 283 286 287 285 284 283 281 280 278 273 269 266 264 263 264 264 263 263 262 262 263 263 263 263 264 264 264 264 264 263 263 262 261 261 260 260 261 262 262 262 261 261 261 261 262
255 254 255 258 260 259 257 255 254 253 255 256 256 255 255 256 256 257 258 260 262 263 265 267 267 266 264 264 264 265 265 265 265 266 266 267 267 268 271 276 280 285 288 289 289 285 282 281 280 277 274 270 266 264 264 264 263 263 262 262 262 262 262 262 263 263 263 264 264 263 263 263 263 262 261 260 260 261 261 261 261 260 260 260 260
254 253 254 257 257 256 256 255 253 255 257 255 256 257 255 256 257 258 258 258 259 260 263 265 265 266 265 264 264 263 263 264 264 265 264 263 265 265 270 276 281 286 289 292 294 290 286 284 282 279 276 273 269 264 263 264 263 263 263 263 262 262 262 262 262 262 263 264 264 264 263 263 264 264 263 262 261 261 261 261 260 259 259 259 259
253 251 253 255 257 258 257 258 257 260 260 256 256 256 257 261 263 263 261 260 261 261 262 264 265 265 265 264 265 266 265 266 266 265 262 262 264 265 269 273 279 286 289 291 294 294 291 288 285 282 279 276 272 266 264 263 263 263 263 263 263 262 262 262 261 261 262 263 264 264 264 264 264 264 264 263 263 263 261 260 259 259 259 258 258
250 250 253 253 256 258 258 260 261 260 259 256 255 255 259 262 264 264 261 262 264 264 263 264 265 264 265 265 267 269 268 267 269 266 261 262 266 267 270 274 280 285 288 288 290 292 293 292 289 286 283 279 275 270 265 263 263 263 263 263 263 262 261 261 261 261 260 260 261 262 262 263 263 263 263 263 263 262 261 260 259 259 259 259 259
249 252 255 252 252 255 256 257 259 258 257 256 252 253 259 260 261 261 259 261 262 263 263 264 267 267 268 268 267 268 268 268 266 263 260 261 266 270 273 279 284 286 287 286 287 289 291 292 291 289 287 283 279 275 269 265 264 263 263 263 262 262 261 261 261 261 261 261 260 261 261 261 261 261 262 262 262 261 261 260 259 258 258 258 259
252 253 253 252 251 252 253 253 254 254 255 256 251 253 259 260 261 262 261 261 261 261 263 266 269 271 271 270 269 268 267 266 264 262 261 261 266 273 278 282 285 287 287 287 288 290 291 292 293 293 291 287 283 279 275 271 268 265 263 263 262 261 261 261 261 261 260 260 260 260 259 260 260 260 260 261 261 260 260 259 258 258 258 258 258
251 249 249 251 250 250 251 250 251 252 252 254 251 255 261 261 261 263 261 260 261 262 264 269 271 273 274 271 269 269 267 265 263 260 260 265 272 278 281 282 283 284 286 288 291 292 292 294 297 298 297 295 291 286 282 277 273 269 265 263 262 262 261 261 260 260 259 258 258 258 259 259 259 259 259 259 259 259 259 258 258 258 259 259 259
246 245 246 249 248 249 250 249 249 250 251 252 251 254 260 261 260 261 262 261 262 262 265 269 272 273 274 273 272 270 266 263 260 259 263 270 276 278 280 280 282 283 286 290 292 291 292 295 298 300 302 304 304 301 294 287 282 276 270 267 264 263 262 261 260 260 259 257 257 257 257 257 258 258 258 258 258 258 257 258 258 258 259 260 260
247 246 247 248 249 251 252 252 251 249 250 251 250 253 258 258 259 261 263 263 263 263 264 267 270 273 275 275 273 268 265 263 260 260 264 269 272 275 277 278 280 284 288 290 289 289 293 297 300 304 307 310 312 313 310 303 298 292 287 281 275 270 266 263 261 261 260 258 257 256 256 256 256 256 256 256 256 256 256 257 257 258 258 258 259
250 248 247 248 250 252 254 254 252 251 252 252 252 257 258 257 259 264 264 260 259 261 263 264 265 273 281 280 275 267 264 263 259 259 260 261 264 267 269 273 276 282 286 286 288 291 294 298 303 306 306 307 309 310 310 308 304 302 300 296 291 284 277 271 266 263 262 260 259 258 257 256 256 255 254 254 254 254 254 255 255 256 256 255 257
252 251 249 249 250 253 255 255 254 255 256 257 261 262 260 258 259 261 261 258 256 257 256 249 248 265 284 293 289 276 260 253 252 254 253 252 256 260 265 270 273 276 279 282 287 291 293 297 300 301 302 303 304 303 303 303 302 302 300 297 294 290 285 278 272 267 264 262 260 259 259 257 256 255 253 252 252 251 251 252 252 253 253 254 256
252 252 251 251 250 251 253 255 255 255 255 260 264 263 259 257 256 254 255 256 258 257 245 232 240 263 280 289 296 304 279 245 239 245 245 247 257 263 265 266 268 272 275 278 283 287 291 296 296 297 299 300 301 301 301 300 300 301 300 296 293 290 288 284 278 272 267 264 262 260 260 258 256 254 252 252 250 248 248 248 250 250 250 253 255
254 252 253 254 252 250 251 253 254 252 254 259 260 258 255 254 250 245 246 249 254 256 243 231 231 240 260 271 278 299 287 263 280 270 248 244 255 254 252 260 266 274 277 279 281 283 286 289 290 293 295 296 299 300 300 299 300 301 300 297 293 290 289 287 284 279 272 267 265 262 260 258 257 255 252 251 249 246 247 247 247 248 248 250 252
257 254 254 256 253 251 250 251 253 252 252 254 256 256 253 250 246 241 241 242 247 253 249 236 226 222 229 245 264 270 264 312 333 299 246 236 253 251 254 265 272 275 277 279 281 284 285 285 288 293 295 296 298 299 298 299 300 301 301 299 297 294 292 289 286 283 277 272 268 265 263 260 258 256 253 250 249 246 246 246 246 247 247 248 250
265 261 256 254 253 254 252 250 251 249 248 251 254 255 252 249 246 242 242 242 244 250 250 242 232 228 231 238 251 263 277 313 323 298 283 269 256 258 262 264 273 276 277 277 279 282 282 282 288 294 296 298 299 299 298 298 298 298 299 299 298 298 295 291 288 284 279 274 271 267 265 263 261 260 256 251 249 247 246 246 246 246 246 247 249
272 267 260 255 253 252 251 252 252 250 249 249 251 253 253 251 247 243 244 244 239 241 247 244 237 234 234 237 246 253 260 271 275 281 297 280 246 258 269 270 280 281 278 276 276 277 274 275 284 290 294 297 296 296 298 298 297 298 298 299 298 297 295 291 288 286 281 275 272 269 266 264 263 261 258 253 250 248 247 247 247 247 247 248 249
272 271 266 262 258 255 253 252 254 253 249 248 249 251 251 251 250 244 242 242 237 238 245 244 238 237 235 232 238 244 246 249 253 258 273 277 273 275 274 276 281 280 279 279 277 275 274 276 279 282 287 289 287 290 296 297 297 299 299 300 300 297 296 293 289 288 284 278 274 271 269 267 266 262 258 255 252 249 248 248 248 247 247 248 249
273 272 270 265 262 261 257 250 251 253 249 248 249 250 250 250 250 246 242 242 240 240 244 244 241 241 240 235 233 237 241 243 245 245 246 259 273 281 279 281 282 278 278 279 279 278 277 280 280 279 283 283 280 286 292 294 296 298 298 299 300 298 296 293 290 290 288 284 280 274 270 269 268 266 260 254 252 250 249 248 247 248 248 249 249
285 280 275 269 265 264 260 253 252 253 251 250 250 251 252 251 251 248 245 245 245 243 243 245 246 245 244 243 236 230 235 238 237 238 240 247 257 271 279 282 282 280 280 279 279 280 278 280 280 278 279 279 280 283 286 290 295 296 299 300 298 297 296 293 290 288 287 287 284 279 274 271 269 268 266 258 251 249 248 247 246 246 248 249 249
294 290 285 280 274 267 262 259 257 255 253 253 253 253 254 254 254 252 249 246 247 247 245 245 247 248 247 245 245 240 235 235 233 233 236 241 250 262 269 275 279 280 283 282 280 280 279 279 278 275 274 275 278 279 280 288 294 296 300 300 295 294 294 292 288 287 289 290 288 286 283 278 273 269 267 263 255 248 247 248 247 246 247 249 249
299 294 292 289 285 277 268 264 261 258 256 256 256 257 257 257 255 254 252 249 248 248 247 246 244 247 248 245 247 248 245 244 241 239 240 242 247 257 264 271 278 281 284 285 283 281 279 278 276 274 273 275 275 273 277 287 293 296 298 295 292 290 290 289 286 285 290 292 291 292 295 291 281 272 268 264 258 251 247 247 247 247 247 248 248
312 304 300 295 291 286 277 272 267 263 262 260 260 260 259 259 256 254 253 251 249 247 246 246 245 247 249 248 247 248 249 250 248 247 247 247 248 253 260 263 271 281 285 286 286 284 281 277 274 272 270 271 275 275 277 284 289 293 295 291 289 287 284 284 283 283 286 289 290 292 297 297 287 277 270 265 260 254 249 247 247 247 248 248 248
325 318 314 306 296 288 280 276 272 269 268 266 266 265 262 260 259 257 255 253 251 249 248 248 249 249 250 250 249 247 248 248 246 247 248 247 247 252 262 264 265 273 280 282 283 284 283 279 276 272 265 266 275 278 278 282 286 291 294 291 289 286 283 281 279 281 283 286 290 292 295 297 292 281 271 264 260 256 252 248 246 246 246 247 247
333 328 324 318 307 297 287 279 274 270 270 268 268 267 265 264 261 259 257 255 253 252 252 251 251 251 250 249 250 250 250 248 244 245 246 246 249 254 258 264 269 271 274 278 279 279 281 284 283 276 264 266 276 279 279 281 282 287 290 287 286 286 285 281 277 278 283 287 290 291 291 293 294 288 276 268 260 255 253 251 248 245 245 245 247
346 341 336 331 323 313 301 291 283 276 270 267 266 264 263 263 262 260 259 257 257 257 257 257 256 255 254 254 255 256 255 252 249 250 251 250 252 255 254 254 265 270 271 276 277 277 280 285 287 284 275 271 277 281 284 284 282 286 289 284 282 283 283 281 276 275 281 289 291 288 287 288 292 292 284 276 267 257 253 252 252 249 246 246 246
354 350 345 341 336 330 321 310 300 291 282 273 267 263 262 261 260 260 260 260 261 261 260 260 260 260 260 260 261 261 260 258 256 257 256 254 255 255 253 252 257 264 271 275 273 274 280 281 280 286 287 283 285 289 287 285 285 288 289 285 281 282 283 282 278 273 274 284 287 283 281 283 286 291 290 284 278 266 255 251 252 252 250 248 247
355 352 350 347 343 338 334 326 316 307 298 287 277 267 261 260 258 257 258 259 260 261 261 261 260 260 261 262 262 262 262 261 262 262 260 259 259 258 257 258 258 258 263 274 273 266 273 277 275 280 288 291 293 293 288 284 287 288 287 283 281 283 286 285 280 275 273 277 280 279 278 279 281 285 289 288 283 276 264 254 251 251 251 250 249
353 351 350 348 346 343 339 334 327 320 311 302 292 282 269 260 257 256 257 256 256 259 259 258 258 258 259 260 260 261 261 262 263 264 263 262 262 261 261 261 259 258 261 269 275 260 255 271 277 277 284 287 287 289 287 284 285 287 284 282 281 284 288 286 282 277 273 274 276 276 277 277 276 278 284 287 286 281 272 262 255 252 251 251 250
352 351 350 348 346 344 341 338 335 330 323 316 307 298 285 271 262 258 256 254 253 257 259 258 257 257 258 258 258 258 259 260 261 262 262 261 262 262 261 261 260 260 261 261 270 269 258 265 274 277 282 284 282 282 285 286 287 287 284 280 281 286 287 285 283 279 276 275 276 276 275 273 273 273 276 281 285 285 278 268 261 255 253 251 251
352 350 348 347 346 343 341 339 337 334 330 325 318 310 299 287 277 269 264 261 259 259 260 261 259 258 259 261 261 261 260 260 260 261 261 261 262 262 261 262 261 261 260 259 264 273 268 264 269 274 275 276 278 279 282 285 288 289 287 284 284 286 285 283 284 283 279 277 277 277 276 273 272 272 272 273 277 281 281 273 265 259 255 252 250
350 348 346 345 344 342 340 338 336 334 331 328 324 319 312 302 294 285 278 274 268 263 260 259 258 256 258 260 262 263 262 261 261 261 261 261 261 261 260 261 263 263 261 262 266 272 274 269 269 273 272 269 271 276 277 279 283 286 287 288 287 285 281 280 281 283 283 281 280 279 278 275 272 270 269 269 270 273 278 277 269 261 257 253 250
345 345 343 342 340 339 338 337 335 333 331 328 325 322 318 311 305 297 290 284 278 271 265 260 256 252 250 252 254 255 255 257 259 260 260 260 259 260 260 260 262 264 262 262 266 270 277 279 274 275 278 275 272 273 272 273 278 282 282 283 283 282 281 280 279 279 282 283 283 282 280 277 274 271 269 268 267 267 271 274 271 264 259 255 251
339 339 339 338 337 337 336 334 333 332 330 328 325 322 319 314 308 302 296 290 283 277 271 267 263 258 254 252 252 250 247 250 255 256 255 256 256 258 261 261 260 263 264 263 265 268 273 279 277 274 277 279 276 274 273 275 277 278 278 278 278 278 280 282 280 280 280 281 282 282 280 278 276 273 271 268 267 266 266 269 270 266 262 256 250
334 334 334 333 333 333 333 332 330 329 327 325 323 321 319 315 309 303 299 293 287 280 275 271 269 266 263 262 262 258 252 251 253 255 254 254 256 257 260 262 262 264 267 266 266 269 273 276 279 277 275 276 278 278 277 276 276 276 276 276 277 279 279 280 280 280 279 280 281 280 280 281 279 276 273 269 266 264 263 265 267 267 265 259 252
332 331 329 328 328 328 329 329 328 327 325 322 321 320 317 314 310 305 301 296 291 286 281 277 274 271 269 269 269 266 260 258 259 260 260 259 259 258 258 261 264 265 267 268 267 269 272 275 279 282 279 277 281 282 279 274 273 277 279 278 279 281 280 279 280 278 279 281 281 278 279 282 282 279 277 274 269 265 262 262 265 267 267 263 256
330 328 326 325 325 324 324 325 325 325 323 320 319 319 316 313 309 305 302 300 297 292 287 283 280 276 273 272 272 270 267 265 266 267 269 268 266 264 261 262 264 263 264 267 268 268 271 273 276 279 280 279 279 280 279 276 272 273 276 279 282 282 281 280 281 280 279 279 279 279 280 281 280 278 278 277 274 269 264 262 263 266 267 266 262
326 325 324 322 321 322 321 320 321 322 320 319 319 319 318 317 312 305 302 300 298 295 292 291 287 284 281 277 273 271 269 267 267 266 268 269 271 271 269 266 266 266 265 266 268 268 268 270 273 274 278 280 278 276 277 277 269 267 269 270 273 278 280 277 278 280 278 276 278 280 281 278 275 275 275 274 273 271 266 263 262 263 266 267 266
321 321 320 318 319 320 320 319 319 320 319 317 315 315 318 319 315 307 302 298 296 294 293 293 291 289 287 283 278 276 274 271 269 266 264 264 266 268 268 269 269 268 267 266 267 267 266 266 269 271 274 277 277 277 277 272 268 270 273 268 264 270 278 279 279 278 275 275 278 280 279 276 272 275 275 271 271 272 268 265 264 263 265 267 267
317 317 317 316 316 317 318 318 318 318 316 313 310 312 316 317 314 308 303 298 295 293 290 291 291 290 289 287 285 283 281 278 274 270 267 264 262 262 263 265 266 265 265 263 261 259 260 260 263 266 270 271 271 273 275 273 274 277 277 274 274 280 286 288 286 284 279 274 275 276 278 277 273 274 272 268 270 272 268 266 266 265 266 268 269
315 315 315 314 314 314 315 315 315 314 312 311 312 313 314 315 314 309 304 300 297 293 289 289 290 290 290 289 288 288 286 283 279 275 272 269 265 262 261 262 262 261 260 259 258 256 255 256 258 260 260 263 266 269 270 272 276 277 277 279 282 285 288 288 288 289 288 281 272 271 278 281 276 270 270 269 270 271 269 267 267 266 266 267 268
314 314 314 313 312 312 312 312 312 312 309 310 313 314 313 314 314 310 304 300 296 293 291 290 290 291 291 290 290 289 286 284 282 279 277 275 272 268 265 263 262 260 258 257 257 256 254 254 257 258 256 258 264 268 268 271 279 282 283 284 282 282 283 279 277 281 285 286 276 269 277 284 278 265 268 272 271 270 271 270 268 267 267 266 266
313 312 311 311 311 311 311 311 311 311 310 310 313 314 313 313 314 311 304 298 294 292 292 291 291 291 291 292 292 290 287 285 283 280 280 280 279 276 273 269 266 264 261 259 258 257 256 256 257 257 257 257 262 266 267 274 286 290 288 286 283 282 278 276 277 278 281 283 277 266 274 281 278 267 268 274 274 270 271 271 267 266 268 267 265
313 311 310 311 310 309 309 309 309 309 310 311 312 314 313 313 314 313 306 298 294 292 292 292 292 291 291 292 292 291 290 289 286 284 285 285 284 280 275 272 269 266 263 260 258 256 254 253 254 258 261 262 263 268 272 277 282 283 284 286 288 288 284 283 286 285 283 282 276 268 269 275 276 270 267 273 275 273 273 272 267 266 268 267 266
312 311 309 309 308 306 305 306 306 307 308 310 312 312 312 313 315 314 308 301 298 295 294 293 292 291 291 290 290 290 291 290 288 288 289 289 288 284 279 275 271 268 263 257 254 252 251 250 251 256 262 265 266 268 274 280 281 279 283 287 288 288 288 290 290 285 281 278 273 266 261 271 274 271 265 271 275 275 274 273 269 266 265 265 266
310 308 307 307 307 305 303 303 303 303 304 309 312 311 311 312 314 315 310 305 302 299 297 297 294 292 290 289 289 289 290 289 288 287 287 288 290 289 284 280 276 272 266 261 257 256 255 254 254 256 261 266 268 270 274 279 281 283 287 286 282 283 286 288 286 281 279 278 272 260 255 267 272 271 267 271 273 273 272 272 269 267 265 263 264
308 307 305 304 304 304 302 301 301 300 301 306 310 311 310 311 315 315 312 308 306 303 301 300 297 294 291 289 289 289 289 288 287 288 290 290 291 289 285 283 281 276 272 268 264 261 261 260 260 262 265 268 271 273 275 276 278 280 281 279 276 279 281 277 276 277 279 281 276 263 255 261 268 270 272 273 272 270 270 269 268 267 264 262 262
306 305 303 302 301 302 301 299 298 297 297 300 306 310 309 310 314 316 313 311 309 306 305 303 300 297 294 291 289 288 286 286 288 293 296 294 291 287 285 286 284 279 278 278 274 270 267 266 265 265 268 269 271 273 274 273 274 273 269 267 269 272 269 261 266 277 279 279 276 269 258 260 268 270 274 277 274 269 267 268 268 266 263 260 261
304 303 303 302 301 300 299 298 296 294 294 296 303 308 309 310 314 316 315 313 310 309 308 307 305 302 299 296 293 288 285 286 291 296 298 295 291 287 285 285 281 278 280 282 279 279 279 277 274 272 272 272 272 273 274 273 273 269 262 260 262 262 258 254 260 269 277 276 275 273 260 260 268 268 268 271 273 268 267 266 265 263 260 257 257